Time,TemperatureF,DewpointF,PressureIn,WindDirection,WindDirectionDegrees,WindSpeedMPH,WindSpeedGustMPH,Humidity,HourlyPrecipIn,Conditions,Clouds,dailyrainin,SoftwareType,DateUTC
2013-06-07 00:00:00,65.0,-99.9,-100.00,North,-999,-999.0,-999.0,-999,0.04,,,0.37,,2013-06-07 04:00:00,
2013-06-07 00:33:00,65.0,-99.9,-100.00,North,-999,-999.0,-999.0,-999,0.04,,,0.37,,2013-06-07 04:33:00,
2013-06-07 00:42:00,65.0,-99.9,-100.00,North,-999,-999.0,-999.0,-999,0.04,,,0.37,,2013-06-07 04:42:00,
2013-06-07 00:54:00,65.0,-99.9,-100.00,North,-999,-999.0,-999.0,-999,0.04,,,0.37,,2013-06-07 04:54:00,
2013-06-07 01:00:00,65.0,-99.9,-100.00,North,-999,-999.0,-999.0,-999,0.04,,,0.41,,2013-06-07 05:00:00,
2013-06-07 01:32:00,65.0,-99.9,-100.00,North,-999,-999.0,-999.0,-999,0.04,,,0.41,,2013-06-07 05:32:00,
2013-06-07 01:43:00,65.0,-99.9,-100.00,North,-999,-999.0,-999.0,-999,0.04,,,0.41,,2013-06-07 05:43:00,
2013-06-07 01:52:00,65.0,-99.9,-100.00,North,-999,-999.0,-999.0,-999,0.04,,,0.41,,2013-06-07 05:52:00,
2013-06-07 02:00:00,65.0,-99.9,-100.00,North,-999,-999.0,-999.0,-999,0.04,,,0.45,,2013-06-07 06:00:00,
2013-06-07 02:32:00,65.0,-99.9,-100.00,North,-999,-999.0,-999.0,-999,0.04,,,0.45,,2013-06-07 06:32:00,
2013-06-07 02:43:00,65.0,-99.9,-100.00,North,-999,-999.0,-999.0,-999,0.04,,,0.45,,2013-06-07 06:43:00,
2013-06-07 02:52:00,65.0,-99.9,-100.00,North,-999,-999.0,-999.0,-999,0.04,,,0.45,,2013-06-07 06:52:00,
2013-06-07 03:00:00,65.0,-99.9,-100.00,North,-999,-999.0,-999.0,-999,0.04,,,0.49,,2013-06-07 07:00:00,
2013-06-07 03:43:00,65.0,-99.9,-100.00,North,-999,-999.0,-999.0,-999,0.04,,,0.49,,2013-06-07 07:43:00,
2013-06-07 03:52:00,65.0,-99.9,-100.00,North,-999,-999.0,-999.0,-999,0.04,,,0.49,,2013-06-07 07:52:00,
2013-06-07 04:00:00,65.0,-99.9,-100.00,North,-999,-999.0,-999.0,-999,0.04,,,0.52,,2013-06-07 08:00:00,
2013-06-07 04:32:00,65.0,-99.9,-100.00,North,-999,-999.0,-999.0,-999,0.04,,,0.52,,2013-06-07 08:32:00,
2013-06-07 04:43:00,65.0,-99.9,-100.00,North,-999,-999.0,-999.0,-999,0.04,,,0.52,,2013-06-07 08:43:00,
2013-06-07 04:52:00,65.0,-99.9,-100.00,North,-999,-999.0,-999.0,-999,0.04,,,0.52,,2013-06-07 08:52:00,
2013-06-07 05:00:00,65.0,-99.9,-100.00,North,-999,-999.0,-999.0,-999,0.04,,,0.56,,2013-06-07 09:00:00,
2013-06-07 05:43:00,65.0,-99.9,-100.00,North,-999,-999.0,-999.0,-999,0.04,,,0.56,,2013-06-07 09:43:00,
2013-06-07 05:53:00,65.0,-99.9,-100.00,North,-999,-999.0,-999.0,-999,0.04,,,0.56,,2013-06-07 09:53:00,
2013-06-07 06:00:00,65.0,-99.9,-100.00,North,-999,-999.0,-999.0,-999,0.04,,,0.58,,2013-06-07 10:00:00,
2013-06-07 06:33:00,65.0,-99.9,-100.00,North,-999,-999.0,-999.0,-999,0.04,,,0.58,,2013-06-07 10:33:00,
2013-06-07 06:43:00,65.0,-99.9,-100.00,North,-999,-999.0,-999.0,-999,0.04,,,0.58,,2013-06-07 10:43:00,
2013-06-07 06:53:00,65.0,-99.9,-100.00,North,-999,-999.0,-999.0,-999,0.04,,,0.58,,2013-06-07 10:53:00,
2013-06-07 07:00:00,65.0,-99.9,-100.00,North,-999,-999.0,-999.0,-999,0.04,,,0.59,,2013-06-07 11:00:00,
2013-06-07 07:32:00,65.0,-99.9,-100.00,North,-999,-999.0,-999.0,-999,0.04,,,0.59,,2013-06-07 11:32:00,
2013-06-07 07:42:00,65.0,-99.9,-100.00,North,-999,-999.0,-999.0,-999,0.04,,,0.59,,2013-06-07 11:42:00,
2013-06-07 07:53:00,65.0,-99.9,-100.00,North,-999,-999.0,-999.0,-999,0.04,,,0.59,,2013-06-07 11:53:00,
2013-06-07 08:00:00,66.0,-99.9,-100.00,North,-999,-999.0,-999.0,-999,0.04,,,0.59,,2013-06-07 12:00:00,
2013-06-07 08:33:00,66.0,-99.9,-100.00,North,-999,-999.0,-999.0,-999,0.04,,,0.59,,2013-06-07 12:33:00,
2013-06-07 08:42:00,66.0,-99.9,-100.00,North,-999,-999.0,-999.0,-999,0.04,,,0.59,,2013-06-07 12:42:00,
2013-06-07 08:52:00,66.0,-99.9,-100.00,North,-999,-999.0,-999.0,-999,0.04,,,0.59,,2013-06-07 12:52:00,
2013-06-07 09:00:00,65.0,-99.9,-100.00,North,-999,-999.0,-999.0,-999,0.04,,,0.63,,2013-06-07 13:00:00,
2013-06-07 09:43:00,65.0,-99.9,-100.00,North,-999,-999.0,-999.0,-999,0.04,,,0.63,,2013-06-07 13:43:00,
2013-06-07 09:53:00,65.0,-99.9,-100.00,North,-999,-999.0,-999.0,-999,0.04,,,0.63,,2013-06-07 13:53:00,
2013-06-07 10:00:00,64.0,-99.9,-100.00,North,-999,-999.0,-999.0,-999,0.04,,,0.64,,2013-06-07 14:00:00,
2013-06-07 10:43:00,64.0,-99.9,-100.00,North,-999,-999.0,-999.0,-999,0.04,,,0.64,,2013-06-07 14:43:00,
2013-06-07 10:52:00,64.0,-99.9,-100.00,North,-999,-999.0,-999.0,-999,0.04,,,0.64,,2013-06-07 14:52:00,
2013-06-07 11:00:00,64.0,-99.9,-100.00,North,-999,-999.0,-999.0,-999,0.04,,,0.67,,2013-06-07 15:00:00,
2013-06-07 11:33:00,64.0,-99.9,-100.00,North,-999,-999.0,-999.0,-999,0.04,,,0.67,,2013-06-07 15:33:00,
2013-06-07 11:43:00,64.0,-99.9,-100.00,North,-999,-999.0,-999.0,-999,0.04,,,0.67,,2013-06-07 15:43:00,
2013-06-07 11:53:00,64.0,-99.9,-100.00,North,-999,-999.0,-999.0,-999,0.04,,,0.67,,2013-06-07 15:53:00,
2013-06-07 12:00:00,64.0,-99.9,-100.00,North,-999,-999.0,-999.0,-999,0.04,,,0.71,,2013-06-07 16:00:00,
2013-06-07 12:33:00,64.0,-99.9,-100.00,North,-999,-999.0,-999.0,-999,0.04,,,0.71,,2013-06-07 16:33:00,
2013-06-07 12:43:00,64.0,-99.9,-100.00,North,-999,-999.0,-999.0,-999,0.04,,,0.71,,2013-06-07 16:43:00,
2013-06-07 12:53:00,64.0,-99.9,-100.00,North,-999,-999.0,-999.0,-999,0.04,,,0.71,,2013-06-07 16:53:00,
2013-06-07 13:00:00,65.0,-99.9,-100.00,North,-999,-999.0,-999.0,-999,0.04,,,0.75,,2013-06-07 17:00:00,
2013-06-07 13:43:00,65.0,-99.9,-100.00,North,-999,-999.0,-999.0,-999,0.04,,,0.75,,2013-06-07 17:43:00,
2013-06-07 13:53:00,65.0,-99.9,-100.00,North,-999,-999.0,-999.0,-999,0.04,,,0.75,,2013-06-07 17:53:00,
2013-06-07 14:00:00,65.0,-99.9,-100.00,North,-999,-999.0,-999.0,-999,0.04,,,0.79,,2013-06-07 18:00:00,
2013-06-07 14:49:00,65.0,-99.9,-100.00,North,-999,-999.0,-999.0,-999,0.04,,,0.79,,2013-06-07 18:49:00,
2013-06-07 15:00:00,65.0,-99.9,-100.00,North,-999,-999.0,-999.0,-999,0.04,,,0.83,,2013-06-07 19:00:00,
2013-06-07 15:54:00,65.0,-99.9,-100.00,North,-999,-999.0,-999.0,-999,0.04,,,0.83,,2013-06-07 19:54:00,
2013-06-07 16:00:00,67.0,-99.9,-100.00,North,-999,-999.0,-999.0,-999,0.04,,,0.87,,2013-06-07 20:00:00,
2013-06-07 16:44:00,67.0,-99.9,-100.00,North,-999,-999.0,-999.0,-999,0.04,,,0.87,,2013-06-07 20:44:00,
2013-06-07 16:54:00,67.0,-99.9,-100.00,North,-999,-999.0,-999.0,-999,0.04,,,0.87,,2013-06-07 20:54:00,
2013-06-07 16:59:00,67.0,-99.9,-100.00,North,-999,-999.0,-999.0,-999,0.04,,,0.87,,2013-06-07 20:59:00,
2013-06-07 17:00:00,64.0,-99.9,-100.00,North,-999,-999.0,-999.0,-999,0.04,,,0.91,,2013-06-07 21:00:00,
2013-06-07 17:44:00,64.0,-99.9,-100.00,North,-999,-999.0,-999.0,-999,0.04,,,0.91,,2013-06-07 21:44:00,
2013-06-07 17:49:00,64.0,-99.9,-100.00,North,-999,-999.0,-999.0,-999,0.04,,,0.91,,2013-06-07 21:49:00,
2013-06-07 18:00:00,65.0,-99.9,-100.00,North,-999,-999.0,-999.0,-999,0.04,,,0.95,,2013-06-07 22:00:00,
2013-06-07 18:41:00,65.0,-99.9,-100.00,North,-999,-999.0,-999.0,-999,0.04,,,0.95,,2013-06-07 22:41:00,
2013-06-07 19:00:00,67.0,-99.9,-100.00,North,-999,-999.0,-999.0,-999,0.04,,,0.99,,2013-06-07 23:00:00,
2013-06-07 19:44:00,67.0,-99.9,-100.00,North,-999,-999.0,-999.0,-999,0.04,,,0.99,,2013-06-07 23:44:00,
2013-06-07 20:00:00,65.0,-99.9,-100.00,North,-999,-999.0,-999.0,-999,0.04,,,0.94,,2013-06-08 00:00:00,
2013-06-07 20:38:00,65.0,-99.9,-100.00,North,-999,-999.0,-999.0,-999,0.04,,,0.94,,2013-06-08 00:38:00,
2013-06-07 21:00:00,64.0,-99.9,-100.00,North,-999,-999.0,-999.0,-999,0.04,,,0.96,,2013-06-08 01:00:00,
2013-06-07 21:42:00,64.0,-99.9,-100.00,North,-999,-999.0,-999.0,-999,0.04,,,0.96,,2013-06-08 01:42:00,
2013-06-07 21:52:00,64.0,-99.9,-100.00,North,-999,-999.0,-999.0,-999,0.04,,,0.96,,2013-06-08 01:52:00,
2013-06-07 22:00:00,63.0,-99.9,-100.00,North,-999,-999.0,-999.0,-999,0.04,,,0.96,,2013-06-08 02:00:00,
2013-06-07 23:00:00,62.0,-99.9,-100.00,North,-999,-999.0,-999.0,-999,0.04,,,0.96,,2013-06-08 03:00:00,
2013-06-07 23:41:00,62.0,-99.9,-100.00,North,-999,-999.0,-999.0,-999,0.04,,,0.96,,2013-06-08 03:41:00,
2013-06-07 23:55:00,62.0,-99.9,-100.00,North,-999,-999.0,-999.0,-999,0.04,,,0.96,,2013-06-08 03:55:00,